Weather History for KDAB - May, 2013

Change the Weather History Date:

Tuesday, May 28, 2013

  Actual Average Record
Temperature  
Mean Temperature 78 °F 78 °F  
Max Temperature 84 °F 87 °F 99 °F (2000)
Min Temperature 72 °F 69 °F 53 °F (1935)
Degree Days  
Heating Degree Days 0 0  
Month to date heating degree days 0 0  
Since 1 July heating degree days 694 807  
Cooling Degree Days 13 13  
Month to date cooling degree days 237 274  
Year to date cooling degree days 605 561  
Growing Degree Days 27 (Base 50)    
Moisture  
Dew Point 66 °F    
Average Humidity 69    
Maximum Humidity 79    
Minimum Humidity 58    
Precipitation  
Precipitation 0.00 in 0.15 in 2.70 in (1934)
Month to date precipitation 9.02 2.64  
Year to date precipitation 14.81 14.58  
Sea Level Pressure  
Sea Level Pressure 30.16 in    
Wind  
Wind Speed 8 mph (East)    
Max Wind Speed 18 mph    
Max Gust Speed 24 mph    
Visibility 10 miles    
Events      
T = Trace of Precipitation, MM = Missing Value Source: NWS Daily Summary

Daily Weather History Graph

Daily Weather History Graph

Search for Another Location

Airport or City:

Trip Planner

Search our weather history database for the weather conditions in past years. The results will help you decide how hot, cold, wet, or windy it might be!

Date:

Astronomy

May. 28, 2013 Rise Set
Actual Time 6:26 AM EDT 8:16 PM EDT
Civil Twilight 5:59 AM EDT 8:43 PM EDT
Nautical Twilight 5:27 AM EDT 9:15 PM EDT
Astronomical Twilight 4:53 AM EDT 9:49 PM EDT
Moon 11:49 PM EDT 10:06 AM EDT
Length of Visible Light 14h 43m
Length of Day
13h 50m
Waning Gibbous, 83% of the Moon is Illuminated
May 28
Waning Gibbous
May 31
Last Quarter
Jun 8
New
Jun 16
First Quarter
Jun 23
Full

Hourly Weather History & Observations

Time (EDT) Temp. Heat Index Dew Point Humidity Pressure Visibility Wind Dir Wind Speed Gust Speed Precip Events Conditions
12:53 AM 75.0 °F - 62.1 °F 64% 30.18 in 10.0 mi East 8.1 mph - N/A   Mostly Cloudy
1:53 AM 73.9 °F - 62.1 °F 66% 30.17 in 10.0 mi East 4.6 mph - N/A   Mostly Cloudy
2:53 AM 73.9 °F - 62.1 °F 66% 30.16 in 10.0 mi East 3.5 mph - N/A   Mostly Cloudy
3:53 AM 73.0 °F - 62.1 °F 68% 30.15 in 10.0 mi East 4.6 mph - N/A   Mostly Cloudy
4:53 AM 72.0 °F - 62.1 °F 71% 30.13 in 10.0 mi East 3.5 mph - N/A   Mostly Cloudy
5:53 AM 72.0 °F - 64.0 °F 76% 30.14 in 10.0 mi ESE 3.5 mph - N/A   Scattered Clouds
6:53 AM 73.0 °F - 64.0 °F 73% 30.14 in 10.0 mi Calm Calm - N/A   Mostly Cloudy
7:53 AM 73.9 °F - 64.9 °F 73% 30.16 in 10.0 mi Calm Calm - N/A   Mostly Cloudy
8:53 AM 78.1 °F - 66.9 °F 68% 30.17 in 10.0 mi ESE 9.2 mph 19.6 mph N/A   Scattered Clouds
9:53 AM 80.1 °F 82.3 °F 66.9 °F 64% 30.18 in 10.0 mi East 10.4 mph - N/A   Mostly Cloudy
10:53 AM 79.0 °F - 66.9 °F 66% 30.19 in 10.0 mi East 9.2 mph 18.4 mph N/A   Mostly Cloudy
11:53 AM 80.1 °F 82.1 °F 66.0 °F 62% 30.19 in 10.0 mi East 13.8 mph 18.4 mph N/A   Mostly Cloudy
12:53 PM 81.0 °F 83.3 °F 66.9 °F 62% 30.18 in 10.0 mi East 11.5 mph 19.6 mph N/A   Mostly Cloudy
1:53 PM 82.0 °F 84.1 °F 66.0 °F 58% 30.17 in 10.0 mi East 6.9 mph - N/A   Mostly Cloudy
2:53 PM 82.0 °F 84.9 °F 68.0 °F 62% 30.16 in 10.0 mi ENE 11.5 mph - N/A   Scattered Clouds
3:53 PM 81.0 °F 83.8 °F 68.0 °F 65% 30.15 in 10.0 mi ENE 15.0 mph 20.7 mph N/A   Mostly Cloudy
4:53 PM 82.0 °F 84.1 °F 66.0 °F 58% 30.14 in 10.0 mi East 13.8 mph - N/A   Mostly Cloudy
5:53 PM 80.1 °F 82.7 °F 68.0 °F 67% 30.14 in 10.0 mi East 9.2 mph - N/A   Scattered Clouds
6:53 PM 79.0 °F - 68.0 °F 69% 30.14 in 10.0 mi East 8.1 mph 17.3 mph N/A   Scattered Clouds
7:53 PM 78.1 °F - 66.9 °F 68% 30.15 in 10.0 mi East 8.1 mph 16.1 mph N/A   Scattered Clouds
8:53 PM 77.0 °F - 68.0 °F 74% 30.15 in 10.0 mi East 6.9 mph - N/A   Scattered Clouds
9:53 PM 77.0 °F - 68.0 °F 74% 30.15 in 10.0 mi East 6.9 mph - N/A   Scattered Clouds
10:53 PM 77.0 °F - 68.0 °F 74% 30.16 in 10.0 mi ESE 8.1 mph - N/A   Scattered Clouds
11:53 PM 77.0 °F - 69.1 °F 76% 30.16 in 10.0 mi East 6.9 mph - N/A   Scattered Clouds